Torna al catalogo

STARLINK-37490

AttivoComunicazioniVLEO
NORAD 69525·PAYLOAD·🇺🇸 United States

Lanciato Jun 12, 2026 da Cape Canaveral Space Force Station

Loading…

Prossimi Passaggi (prossime 24 ore)

TLE

AggiornatoSource: CelesTrak SupGP

Epoca: Sep 14, 2026, 21:34 UTC

1 69525C 26133T   26257.89909722  .00047488  00000+0  14034-2 0  2571
2 69525  53.1566 255.6637 0001234  86.5042  43.2531 15.34359356    17

Traccia STARLINK-37490 in tempo reale con AllMySat

Download on the App Store